Flag Weather past 2 weeks in Pyatigorsk, Russia

Now
30 °F

Light mixture of precip. Ice fog.


Feels Like: 21 °F
Forecast: 28 / 33 °F
Wind: 10 mph from East

Location: Mineral'Nye Vody

Current Time: Nov 22, 2014 at 4:58:40 AM

Latest Report: Nov 22, 2014 at 4:30 AM


Visibility: 3 mi

Pressure: 30.09 "Hg

Humidity: 93%

Dew point: 28 °F

Location of PyatigorskLocation

Historic Weather in Pyatigorsk — Graph

°F

Pyatigorsk temperature yesterday

Maximum temperature yesterday: 34 °F (at 12:00 AM)
Minimum temperature yesterday: 30 °F (at 7:00 AM)
Average temperature yesterday: 32 °F

Past Weeks' High & Low Weather Summary

 TemperatureHumidityPressure
High61 °F (Nov 7, 12:30 PM)100% (Nov 8, 2:00 AM)30.39 "Hg (Nov 8, 2:00 AM)
Low25 °F (Nov 12, 6:30 AM)27% (Nov 7, 12:30 PM)30.09 "Hg (Nov 15, 12:00 PM)
Average40 °F90%30.24 "Hg
* Reported Nov 7 3:00 AM — Nov 22 3:30 AM, Pyatigorsk, Weather by CustomWeather, © 2014

Note: Actual official high and low records may vary slightly from our data, if they occured in-between our weather recording intervals... More about our weather records

Advertising

Pyatigorsk weather history for previous 24 hours

 ConditionsComfort  
Time TempWeatherWind HumidityBarometerVisibility
3:30 AM
Nov 22
30 °FLight mixture of precip. Ice fog.13 mph100%30.09 "Hg3 mi
3:00 AM30 °FLight freezing rain. Ice fog.10 mph100%30.09 "Hg3 mi
2:30 AM30 °FLight freezing rain. Ice fog.13 mph100%30.12 "Hg3 mi
2:00 AM32 °FLight freezing rain. Ice fog.13 mph93%30.12 "Hg3 mi
1:30 AM32 °FLight freezing rain. Ice fog.10 mph93%30.12 "Hg3 mi
12:30 AM32 °FDrizzle. Ice fog.10 mph100%30.12 "Hg2 mi
12:00 AM32 °FDrizzle. Ice fog.10 mph93%30.12 "Hg3 mi
11:30 PM
Nov 21
32 °FDrizzle. Ice fog.10 mph100%30.15 "Hg3 mi
11:00 PM32 °FDrizzle. Ice fog.8 mph93%30.15 "Hg1 mi
10:30 PM32 °FDrizzle. Ice fog.8 mph93%30.15 "Hg1 mi
10:00 PM32 °FDrizzle. Ice fog.10 mph93%30.15 "Hg1 mi
9:30 PM32 °FDrizzle. Ice fog.10 mph93%30.15 "Hg2 mi
9:00 PM32 °FDrizzle. Ice fog.10 mph93%30.15 "Hg2 mi
8:30 PM32 °FDrizzle. Ice fog.10 mph93%30.15 "Hg2 mi
8:00 PM32 °FLight freezing rain. Ice fog.10 mph93%30.15 "Hg3 mi
7:30 PM32 °FLight freezing rain. Ice fog.10 mph93%30.15 "Hg2 mi
7:00 PM32 °FLight freezing rain. Ice fog.10 mph93%30.15 "Hg2 mi
6:00 PM32 °FLight freezing rain. Low clouds.13 mph93%30.18 "Hg4 mi
5:30 PM32 °FLight freezing rain. Low clouds.10 mph93%30.18 "Hg4 mi
5:00 PM32 °FLight freezing rain. Low clouds.13 mph93%30.18 "HgN/A
4:30 PM32 °FLight freezing rain. Low clouds.15 mph93%30.18 "HgN/A
4:00 PM32 °FLight freezing rain. Low clouds.13 mph93%30.18 "HgN/A
3:30 PM32 °FLow clouds.13 mph93%30.18 "HgN/A
3:00 PM32 °FLow clouds.15 mph93%30.18 "HgN/A
2:30 PM32 °FDrizzle. Low clouds.13 mph93%30.18 "Hg4 mi
2:00 PM32 °FDrizzle. Low clouds.13 mph93%30.15 "Hg4 mi
1:30 PM32 °FDrizzle. Low clouds.15 mph93%30.18 "Hg4 mi
1:00 PM32 °FIce fog.15 mph93%30.18 "Hg3 mi
12:30 PM32 °FLow clouds.15 mph100%30.18 "Hg4 mi
12:00 PM32 °FIce fog.13 mph93%30.18 "Hg3 mi
11:30 AM32 °FLow clouds.13 mph93%30.18 "Hg4 mi
11:00 AM32 °FIce fog.15 mph93%30.18 "Hg3 mi
10:30 AM32 °FIce fog.15 mph93%30.21 "Hg3 mi
10:00 AM32 °FIce fog.15 mph93%30.21 "Hg2 mi
9:30 AM32 °FIce fog.17 mph93%30.21 "Hg3 mi
9:00 AM32 °FIce fog.15 mph93%30.21 "Hg2 mi
8:30 AM30 °FLight freezing rain. Ice fog.15 mph100%30.21 "Hg2 mi
8:00 AM30 °FLight freezing rain. Ice fog.13 mph100%30.21 "Hg2 mi
7:30 AM30 °FLight freezing rain. Ice fog.17 mph100%30.21 "Hg2 mi
7:00 AM30 °FLight freezing rain. Ice fog.17 mph100%30.18 "Hg2 mi
6:30 AM32 °FLight freezing rain. Low clouds.15 mph93%30.18 "Hg4 mi
6:00 AM32 °FLow clouds.15 mph100%30.18 "HgN/A
5:30 AM32 °FLow clouds.17 mph100%30.18 "HgN/A
5:00 AM32 °FLow clouds.17 mph100%30.18 "HgN/A
4:30 AM32 °FLow clouds.17 mph100%30.18 "HgN/A
4:00 AM32 °FLow clouds.15 mph100%30.18 "HgN/A
Weather by CustomWeather, © 2014

See weather overviewHow to use our weather pages